GFSGBSN_sfc_30mbdewp_000.txt.gz
Dewpoint
54 54 53 52 52 53 53 52 52 53 53 53 54 54 54 53 53 54 54 54 54 54 53 53 54 53 45 31 27 30 34 32 29 28 25 23 24 24 23 23 21 17 17 19 19 19 18
54 53 53 53 53 53 53 53 52 52 52 53 53 53 53 54 54 54 54 54 54 54 53 53 53 53 37 25 29 29 30 30 28 27 25 23 23 25 24 22 22 23 21 22 20 20 20
53 53 53 53 53 54 54 53 52 52 52 52 53 53 53 53 53 54 54 54 54 53 53 52 52 49 44 24 28 31 30 29 28 29 25 23 23 24 23 25 25 23 21 20 21 20 19
53 52 53 53 54 54 54 54 53 52 52 52 52 52 52 52 52 52 53 53 53 53 53 52 52 48 28 29 31 29 30 29 30 30 29 25 25 24 24 25 27 23 21 18 18 21 17
52 51 52 54 54 54 54 54 53 52 52 52 52 51 51 51 51 52 52 51 52 52 53 52 47 43 29 29 28 29 29 28 27 30 31 30 27 25 24 19 17 18 14 15 16 18 16
51 50 52 54 54 54 55 54 53 52 52 52 51 51 50 50 50 49 48 50 52 52 51 51 46 35 30 27 27 29 25 23 22 27 29 28 27 22 20 17 12 16 14 15 17 19 24
49 49 52 54 54 54 55 54 53 52 52 51 51 49 48 47 48 49 45 44 40 32 37 24 24 25 23 25 28 24 23 24 25 26 24 22 19 17 17 19 20 17 18 21 21 22 25
48 48 52 54 54 54 54 54 53 52 51 50 49 48 47 46 45 48 52 44 46 46 30 26 24 23 24 25 24 24 23 22 24 19 17 21 19 19 19 21 19 19 21 21 23 24 26
46 48 52 53 54 54 54 54 53 53 51 50 49 48 47 45 44 49 45 47 54 51 39 23 25 23 24 24 23 24 22 23 23 20 18 20 19 18 19 20 19 18 21 22 23 26 27
45 48 51 53 53 53 53 53 53 53 51 49 49 49 48 47 39 48 45 48 52 54 33 22 25 26 24 23 24 26 24 25 23 19 18 20 19 15 21 20 21 19 21 24 25 25 22
45 48 51 52 53 53 52 52 52 52 51 49 49 50 49 48 50 44 48 52 55 51 25 25 22 26 25 21 21 22 25 25 21 23 19 20 15 17 19 19 24 22 24 27 27 26 25
45 49 51 52 53 53 52 52 52 52 51 49 48 49 51 51 49 49 54 56 51 42 29 22 23 23 24 24 22 26 31 31 31 29 27 20 21 22 22 26 27 28 28 29 29 26 21
47 50 51 52 53 52 52 52 51 51 51 50 47 47 51 54 47 54 57 49 40 26 31 23 23 23 24 22 24 28 29 29 27 20 25 28 25 25 28 26 27 28 28 23 16 21 22
51 51 51 52 53 52 52 51 51 51 51 50 48 47 55 55 56 55 51 40 27 29 24 25 24 23 24 23 23 28 27 28 30 30 29 29 24 30 28 27 27 27 29 25 19 22 23
53 51 51 52 53 52 52 52 51 51 51 49 50 54 51 51 56 56 44 29 27 27 26 24 25 23 24 25 22 27 29 29 30 31 28 30 27 32 30 32 29 28 27 30 26 28 26
53 52 51 52 53 52 52 52 51 51 51 48 48 53 45 53 54 51 34 26 24 26 28 30 25 26 25 28 27 27 28 31 30 32 33 33 30 33 32 33 31 29 30 27 29 24 25
52 52 52 52 53 52 52 51 51 51 50 48 54 41 44 53 53 41 27 24 24 26 29 29 29 30 30 30 31 29 30 32 32 31 35 33 32 28 30 31 30 27 30 30 31 30 28
51 51 52 53 53 52 52 51 51 51 50 49 51 32 42 49 38 42 28 27 28 29 33 32 33 31 31 31 31 31 31 32 34 34 33 34 31 29 27 32 33 32 31 31 28 27 29
51 51 52 53 53 52 51 51 51 51 51 47 44 43 49 47 28 30 31 32 33 32 32 33 32 33 33 33 30 32 33 34 33 34 32 33 29 25 22 26 31 31 31 32 32 30 28
51 51 52 53 53 52 51 51 51 51 51 50 41 34 41 43 43 32 31 31 30 34 33 34 32 34 32 33 33 29 33 36 36 35 36 34 32 28 25 26 32 31 31 32 30 28 28
51 51 51 53 53 52 51 51 51 50 51 50 43 35 41 34 35 34 35 34 32 33 33 33 33 34 32 31 31 34 36 36 36 37 35 34 31 32 32 32 33 33 33 33 32 30 28
51 51 52 53 52 52 52 51 50 50 52 43 39 41 41 39 39 31 34 31 32 31 33 32 34 35 35 35 35 35 36 36 35 36 36 37 33 34 33 34 34 33 33 33 31 30 29
51 52 52 53 53 52 51 50 51 50 52 46 48 46 39 38 35 33 35 32 32 34 35 34 34 33 32 37 38 39 39 38 38 36 36 36 34 33 27 33 33 29 30 29 28 28 27
51 52 53 53 53 52 51 50 51 50 51 52 49 45 35 35 35 32 36 34 34 34 34 35 34 33 38 41 39 37 35 34 36 35 39 34 34 32 30 31 25 27 30 30 28 29 30
52 52 52 53 53 52 51 51 51 50 50 51 53 47 39 37 41 38 36 35 35 36 35 36 38 40 42 39 32 28 26 27 27 36 38 37 34 32 29 28 28 28 28 28 28 30 35
52 53 52 52 53 53 53 52 51 50 50 52 54 50 42 36 36 40 37 37 35 35 35 38 42 43 41 37 32 28 23 27 25 27 38 36 35 30 28 26 22 23 27 33 35 29 36
52 52 52 52 52 52 53 53 52 51 50 51 52 55 46 39 42 41 37 36 40 38 36 37 40 39 40 36 32 30 27 31 26 25 27 28 30 28 26 26 27 28 30 35 26 24 35
51 52 52 52 52 52 52 53 53 51 50 51 51 55 48 44 45 45 44 41 41 39 36 38 36 37 38 35 33 31 30 31 32 30 26 25 25 27 29 27 24 33 33 31 32 35 35
52 52 52 52 52 52 52 52 53 51 50 51 48 54 53 46 44 51 50 50 48 43 42 41 38 37 38 36 35 32 32 34 31 28 32 28 28 26 27 26 31 33 34 35 37 35 36

GFSGBSN_sfc_30mbdewp_003.txt.gz
Dewpoint
54 53 52 53 53 54 53 53 52 52 53 53 53 54 53 52 52 53 54 54 54 54 54 53 54 55 44 27 27 30 33 31 29 29 23 22 22 22 22 22 21 17 17 18 19 18 18
53 52 53 54 54 54 54 53 53 52 52 53 53 53 54 54 54 54 54 54 54 54 54 53 54 53 37 23 28 29 30 29 28 28 25 22 22 24 22 22 20 23 22 21 21 20 20
52 52 53 54 54 54 54 54 53 52 52 52 53 53 53 53 54 54 54 54 54 54 53 53 53 49 38 25 26 31 30 29 30 29 27 24 24 23 23 22 24 22 19 21 20 21 20
51 52 53 54 54 54 55 54 53 53 52 52 52 52 52 52 52 52 53 53 53 53 53 52 52 45 27 29 31 29 30 29 29 29 30 28 27 25 23 24 25 19 19 15 17 21 18
51 51 53 54 54 55 55 54 53 52 52 52 52 51 51 51 51 51 52 53 53 53 52 51 46 40 27 32 28 30 26 23 24 27 28 31 28 24 22 15 16 18 13 14 16 22 23
50 50 53 54 54 55 55 54 53 52 52 51 50 50 50 51 51 51 52 53 53 52 49 46 44 30 28 26 28 26 25 24 22 25 27 27 25 18 20 17 10 15 13 17 17 20 26
48 50 53 54 54 55 55 54 53 52 51 50 50 49 49 48 48 50 50 47 39 30 37 25 24 24 23 24 28 25 24 24 26 25 20 24 18 16 17 19 20 18 19 21 21 22 25
47 49 53 54 55 55 55 54 53 52 51 50 49 49 47 45 45 50 47 44 45 44 28 29 24 23 25 26 23 24 23 23 23 19 18 22 18 19 21 21 19 19 20 18 23 25 27
46 48 52 54 54 54 54 53 53 52 51 50 49 49 47 45 47 46 47 49 54 50 30 24 25 24 25 24 22 24 23 24 23 18 21 19 19 18 20 20 18 18 19 20 22 26 26
45 47 51 53 53 53 53 53 53 52 51 50 49 49 47 47 46 47 43 47 52 49 24 23 25 25 23 23 22 25 24 25 22 18 19 20 17 19 19 20 22 19 20 23 24 25 22
45 47 50 52 53 52 52 52 52 52 51 49 48 49 47 50 47 43 47 53 56 47 13 25 22 26 25 20 20 27 32 24 24 25 19 20 16 20 22 23 24 24 27 27 28 27 25
45 47 50 52 53 52 52 52 52 51 51 49 47 49 48 51 47 49 54 55 49 37 21 22 24 24 23 24 24 30 31 32 32 28 28 25 23 24 24 26 28 29 29 28 29 26 21
47 49 50 51 53 52 52 51 51 51 51 49 47 50 51 54 42 53 55 46 36 22 30 23 23 23 24 22 26 29 30 30 27 17 27 30 29 29 28 27 29 29 28 17 16 18 21
50 50 50 51 53 52 52 51 51 51 50 49 47 50 55 54 55 55 47 37 23 29 25 27 24 24 21 23 26 29 29 29 30 30 30 29 22 31 30 28 28 28 28 23 16 20 22
52 51 51 51 52 52 51 51 51 51 50 48 51 54 47 50 55 54 39 27 25 27 26 25 26 24 25 28 26 28 30 30 31 32 27 30 26 33 32 33 30 29 27 30 26 27 26
51 52 51 51 52 52 51 50 51 50 50 50 51 48 44 53 54 43 29 26 24 26 29 30 25 28 25 30 28 28 29 31 30 35 33 33 29 32 31 32 32 29 30 27 28 24 22
51 52 52 52 52 51 51 50 50 50 50 51 54 33 42 53 47 34 24 23 24 29 30 31 29 30 31 30 31 30 30 32 32 32 34 32 31 26 29 29 30 30 30 30 30 29 26
50 51 52 53 52 51 50 50 50 50 49 53 45 30 43 46 36 37 27 27 31 33 34 33 33 32 32 32 32 31 31 31 34 34 31 34 31 26 26 32 34 32 31 30 26 24 27
50 51 51 53 53 51 50 50 50 50 50 48 42 41 45 40 31 29 32 32 33 32 33 32 31 33 35 33 30 32 33 35 34 34 33 33 29 23 22 26 28 31 32 32 30 29 27
50 51 51 52 53 51 51 50 50 50 51 50 37 30 38 41 39 31 30 30 31 34 33 34 33 34 33 33 33 31 34 36 37 36 36 34 31 27 23 24 30 30 32 33 31 28 27
51 50 51 52 52 51 51 50 49 50 51 47 39 36 41 33 34 35 35 33 32 31 32 34 34 34 32 31 32 35 36 36 36 37 36 35 32 32 31 32 33 33 33 33 32 31 30
51 51 51 52 52 51 50 49 50 50 52 42 39 38 39 40 39 31 32 30 34 32 33 32 34 35 35 34 34 34 36 35 34 36 36 37 31 34 32 33 34 33 33 34 33 33 31
51 51 51 53 53 52 50 49 50 50 51 44 47 45 36 37 32 31 34 32 32 34 35 34 35 33 31 36 38 38 38 38 36 35 35 35 33 33 26 31 32 25 27 29 30 27 27
51 52 52 53 52 52 50 50 50 49 51 49 48 39 33 34 32 33 35 34 34 34 34 35 34 32 36 40 38 36 35 34 34 35 38 33 34 32 29 31 24 23 29 28 28 28 29
51 51 52 53 53 52 51 51 50 50 51 51 51 42 36 34 38 39 35 35 35 35 35 35 39 38 40 36 33 29 26 22 26 38 37 35 33 31 29 28 27 28 27 26 27 27 32
52 51 51 52 53 53 53 52 51 50 50 53 52 44 39 34 35 38 35 36 34 34 35 38 42 42 39 34 31 28 23 27 25 26 37 35 33 32 28 26 23 24 25 30 34 29 34
52 52 52 51 52 52 53 53 52 50 50 51 52 50 43 34 40 40 36 34 37 36 35 36 40 38 38 35 32 30 28 31 26 24 25 29 30 30 28 26 27 28 30 32 28 26 33
51 52 52 52 52 51 52 53 53 51 50 51 52 53 45 40 42 45 43 40 40 37 34 37 36 37 37 34 32 31 29 30 31 29 26 25 24 25 27 25 24 32 34 31 33 34 35
51 51 51 52 52 52 52 52 53 51 50 51 49 53 51 43 41 50 50 48 44 41 39 39 37 35 37 35 34 31 31 32 30 28 31 28 28 26 27 27 30 32 33 34 36 36 36

GFSGBSN_sfc_30mbdewp_006.txt.gz
Dewpoint
53 52 53 54 54 54 54 54 53 53 52 53 53 54 52 52 52 52 52 52 54 54 54 54 54 55 49 27 27 30 34 30 31 28 23 23 22 23 20 22 21 18 17 18 19 17 17
52 52 53 54 54 54 54 54 53 53 52 52 53 53 54 53 53 52 52 54 54 54 54 53 54 54 37 23 28 30 30 29 29 28 26 23 23 23 23 22 19 22 22 21 21 20 20
51 52 54 54 54 55 55 54 53 53 52 52 52 53 53 53 54 54 54 54 54 54 53 54 54 51 29 26 29 30 29 29 30 28 28 26 25 22 23 22 25 23 19 19 19 21 20
51 51 54 54 54 55 55 54 53 52 52 52 52 52 52 52 53 53 53 53 53 53 53 53 53 45 26 30 32 29 26 23 25 29 29 29 28 24 22 24 21 18 17 14 18 20 17
50 51 54 55 54 55 55 54 53 52 52 51 51 51 51 51 52 52 52 52 53 53 53 52 45 36 26 32 27 29 25 22 23 26 30 30 26 23 21 14 16 17 11 14 16 23 25
49 50 54 54 54 55 55 54 53 52 52 51 50 50 50 50 50 51 52 52 52 52 49 45 40 27 25 24 27 26 25 25 23 26 25 23 21 16 19 15 6 15 13 18 17 21 25
48 49 53 55 55 55 55 54 53 52 52 50 49 48 48 48 49 51 51 48 33 28 32 23 24 24 23 24 27 25 25 25 25 21 18 24 17 16 18 20 19 19 18 20 21 23 26
47 48 52 54 54 54 54 54 53 52 51 50 49 49 48 47 48 51 48 44 44 44 24 27 24 24 25 26 23 25 25 23 21 18 18 20 17 19 21 20 18 18 19 16 22 24 27
46 46 51 53 54 53 53 53 53 52 51 50 49 49 47 47 48 48 48 50 55 47 23 24 26 25 24 24 23 24 24 26 21 18 21 19 18 21 20 22 22 21 17 19 22 25 26
46 45 50 52 53 52 52 53 52 52 51 50 49 48 47 45 43 46 43 49 53 41 23 22 23 24 24 23 21 28 31 25 21 18 20 21 19 21 24 23 23 21 21 25 25 26 21
47 45 50 51 53 52 52 52 52 52 50 49 49 48 51 45 46 43 47 53 55 40 8 23 22 25 26 20 22 30 33 25 27 25 22 17 20 24 25 24 25 25 29 28 27 27 25
47 46 50 51 52 52 52 52 51 51 50 49 48 49 49 47 46 50 54 53 46 29 17 23 24 24 22 25 28 31 31 32 31 28 30 27 26 25 26 26 28 30 29 26 28 26 21
48 49 50 51 52 52 51 51 51 51 50 48 49 52 51 53 40 53 53 44 30 21 29 23 22 23 22 24 28 30 30 29 27 17 26 29 29 31 29 28 30 29 25 16 18 18 19
51 51 50 50 52 52 51 51 51 51 50 48 49 52 53 53 54 53 44 34 21 27 25 27 24 25 23 24 28 30 29 28 31 30 30 27 21 30 31 28 27 28 28 23 15 18 21
51 52 51 51 52 52 51 50 50 51 50 50 54 50 45 51 54 49 38 25 24 26 26 25 26 24 26 29 27 29 30 30 32 33 27 30 26 32 33 33 30 28 27 30 26 26 26
50 51 52 51 52 51 50 50 50 50 50 51 52 41 45 52 53 39 29 26 24 28 29 29 25 28 25 30 28 28 29 31 30 34 33 33 27 31 31 32 31 30 31 25 27 22 19
50 50 51 52 52 51 50 50 50 50 50 53 50 32 42 53 43 31 24 23 26 33 32 30 30 30 30 30 30 30 30 31 32 33 33 31 30 23 28 29 30 30 29 29 29 28 25
50 50 50 51 52 51 50 50 50 50 50 51 40 29 44 47 30 33 26 28 32 33 34 33 33 32 31 32 31 31 31 32 34 35 32 33 30 24 24 29 34 32 29 28 22 22 27
50 50 50 51 52 51 51 50 50 50 51 47 40 39 43 40 26 29 32 32 33 32 33 31 32 34 34 32 30 32 33 37 37 34 33 32 28 21 15 25 30 30 32 31 29 29 27
50 50 50 51 52 51 51 49 49 50 51 44 37 35 37 40 37 31 30 30 32 34 33 35 34 33 33 32 34 32 34 36 37 37 36 34 30 25 18 22 27 29 32 32 32 29 27
50 50 50 51 52 51 50 49 49 50 51 44 38 37 39 31 34 34 34 31 32 30 33 35 34 33 32 31 32 34 35 35 35 37 37 35 32 31 31 31 31 32 32 32 32 32 29
50 51 50 50 52 51 50 49 50 50 50 41 37 38 40 39 37 32 32 31 34 33 32 33 33 35 35 32 33 32 35 34 32 35 35 36 29 33 30 33 33 31 32 33 33 33 33
50 51 50 50 52 51 50 49 49 50 49 44 45 43 38 37 32 30 32 32 32 34 35 34 34 32 31 34 37 37 38 37 36 34 34 35 33 32 21 30 30 20 23 29 29 30 28
51 51 51 52 52 52 50 50 50 50 51 47 47 38 31 33 31 33 35 34 33 33 33 35 34 32 35 40 37 35 33 30 33 36 37 34 33 31 29 30 23 23 29 28 28 27 27
50 51 51 52 52 52 51 51 50 50 52 50 48 40 34 33 37 37 34 34 34 35 35 35 39 39 38 35 32 28 25 21 29 37 37 35 33 29 28 27 27 29 26 25 26 26 29
50 50 51 52 52 52 52 52 51 50 51 52 50 43 37 32 34 36 35 35 33 32 34 39 42 41 37 33 31 26 21 26 23 26 35 34 32 31 28 25 23 24 26 30 34 27 34
51 51 51 51 51 52 52 53 51 50 50 52 52 48 40 32 38 39 34 34 36 34 33 36 39 38 37 34 32 30 28 30 25 24 23 29 30 30 29 27 28 29 30 32 27 27 34
51 52 52 52 51 51 52 52 52 50 50 51 52 51 44 38 41 44 41 38 39 36 33 37 36 36 36 34 32 31 29 29 30 28 25 24 23 24 27 25 22 30 32 32 32 36 36
51 51 51 52 52 51 51 52 52 51 50 50 49 50 49 40 39 49 49 47 41 39 37 37 35 35 37 34 33 31 30 29 29 28 31 28 28 27 30 29 30 32 36 35 35 37 37

GFSGBSN_sfc_30mbdewp_009.txt.gz
Dewpoint
53 52 53 54 55 55 54 54 54 54 53 52 53 54 52 52 51 51 51 51 52 53 54 55 55 55 49 27 26 29 33 31 32 28 24 23 22 23 20 21 21 18 17 18 18 16 16
53 52 53 55 55 55 54 53 54 53 53 52 53 53 53 52 52 52 52 52 52 54 54 54 54 54 34 25 28 30 30 29 28 29 26 26 24 24 24 21 21 22 21 21 21 20 21
52 52 54 55 55 55 53 54 53 53 53 52 52 52 53 54 54 53 53 53 54 54 54 54 54 52 28 27 29 31 26 28 27 29 27 26 26 23 24 22 26 23 17 19 20 21 19
51 52 54 55 54 55 53 54 53 53 52 52 52 52 52 53 53 53 54 54 53 53 53 53 54 47 26 30 34 28 25 23 26 29 29 30 27 25 22 25 20 18 17 16 19 23 23
50 51 54 55 55 55 54 54 53 52 52 51 51 51 51 52 52 52 52 52 52 53 53 53 46 33 26 30 27 29 25 23 24 29 29 27 25 23 20 18 16 17 9 15 17 25 26
49 51 54 55 55 55 55 54 53 52 52 51 50 50 50 51 51 52 52 52 51 50 49 49 38 24 24 23 26 27 26 27 25 25 24 23 21 19 21 12 5 14 14 18 17 21 26
48 50 53 55 54 54 55 54 53 52 52 51 51 49 49 49 51 52 49 45 30 27 30 23 24 23 23 25 26 26 25 25 23 22 19 23 19 17 20 20 19 18 18 19 21 24 26
47 48 52 54 54 54 54 54 53 52 52 51 50 48 48 48 49 51 49 42 40 40 23 27 25 24 24 26 24 26 27 22 21 17 21 20 17 19 21 21 18 19 18 17 22 24 27
47 46 50 53 54 53 53 53 53 53 51 50 49 48 48 49 50 49 49 50 54 46 23 24 27 25 24 26 28 28 27 27 20 21 20 19 18 22 21 24 23 23 19 20 22 25 27
47 46 50 52 53 52 52 52 52 52 51 49 48 48 51 48 44 45 44 48 53 41 21 23 23 24 25 23 23 32 33 25 24 19 22 18 22 25 25 24 25 21 24 28 26 26 21
47 46 50 51 52 52 51 51 52 52 51 49 48 50 49 43 44 43 46 53 55 36 3 23 24 26 27 24 24 29 34 30 25 25 23 17 23 25 25 24 27 27 30 29 28 27 26
47 48 50 50 52 52 51 51 51 51 51 49 49 48 49 44 47 50 54 51 44 22 13 23 25 23 26 28 30 31 31 32 30 29 29 27 29 27 27 27 29 30 29 26 28 27 22
49 50 50 50 52 52 51 50 51 51 50 49 53 52 51 50 40 53 51 42 25 17 29 22 21 24 25 27 29 30 30 32 27 18 26 28 29 31 30 27 30 30 24 17 18 19 19
51 51 51 50 52 51 51 50 50 51 50 49 52 51 52 53 54 52 43 32 20 27 25 26 25 26 23 27 29 30 29 28 33 30 30 26 21 30 33 30 28 30 28 23 12 17 21
50 51 51 51 52 51 50 50 50 51 50 51 53 45 47 51 54 46 38 25 24 26 25 25 27 24 27 30 28 29 30 30 32 33 27 28 25 32 33 33 31 29 28 30 26 26 26
50 50 51 51 52 51 50 50 50 51 50 52 46 42 45 51 50 37 29 25 25 29 29 28 24 27 25 30 27 28 29 31 30 34 34 33 26 30 31 32 32 30 31 25 28 20 18
50 50 50 51 52 51 50 50 50 50 50 53 43 37 43 51 40 31 24 24 28 34 33 29 29 30 30 30 30 30 30 32 32 33 33 31 29 24 29 30 30 30 28 29 29 29 25
50 49 50 50 52 51 50 50 50 50 50 46 37 34 45 47 29 32 27 28 32 33 34 33 33 32 31 32 32 31 31 32 35 34 32 33 30 21 25 31 34 32 28 27 22 20 27
50 49 50 51 52 51 51 49 49 50 51 45 39 40 43 40 26 30 32 33 33 32 33 31 33 34 34 32 30 33 33 37 37 35 33 32 28 17 15 26 29 31 32 30 30 30 27
50 50 50 50 52 51 50 49 49 50 51 42 36 35 37 38 37 31 31 31 32 34 34 35 34 34 33 32 34 33 34 36 37 37 36 34 30 24 13 17 26 27 31 31 31 29 26
50 50 50 50 51 51 50 49 49 50 51 42 39 38 38 30 33 33 32 31 31 30 34 35 33 32 32 31 32 34 35 34 35 37 37 35 31 31 30 31 31 30 31 31 31 31 29
50 50 50 49 51 50 50 49 49 50 50 41 38 37 39 37 35 32 31 33 32 33 32 33 33 35 33 30 30 29 33 33 30 35 35 35 28 32 30 32 32 30 31 32 32 32 32
50 51 50 49 52 51 50 50 49 50 48 43 45 42 38 35 31 31 31 33 33 34 35 35 35 32 30 33 36 36 37 37 35 33 34 34 33 31 20 30 30 22 22 28 29 30 28
50 51 50 51 52 51 50 50 49 50 50 46 45 37 34 32 30 33 34 34 33 33 33 35 33 32 34 39 36 34 30 31 33 37 37 34 33 31 29 29 19 21 28 28 28 29 29
50 51 51 52 52 52 52 52 50 50 52 48 46 38 33 32 36 35 34 34 35 36 35 35 40 39 38 35 31 26 24 22 30 36 36 36 34 29 27 26 27 28 27 26 26 26 30
50 50 51 52 52 52 52 52 50 49 52 51 49 43 35 31 35 36 34 34 33 33 35 40 41 40 36 32 30 22 18 25 22 27 35 34 32 31 29 26 23 25 27 31 33 27 35
50 50 50 51 51 52 52 52 51 49 51 52 51 47 38 31 38 37 34 34 35 34 33 36 39 38 37 33 31 29 26 29 24 23 23 28 30 28 28 27 28 30 31 31 28 31 37
50 51 51 51 51 51 52 52 51 50 50 51 51 50 42 36 40 43 40 36 37 36 32 37 37 37 36 34 33 31 30 29 29 28 25 25 25 25 27 26 23 30 31 30 35 39 37
50 51 51 52 52 51 51 52 52 50 50 50 49 49 47 39 40 48 49 45 41 38 37 38 34 36 37 33 32 31 30 29 29 27 30 27 28 27 30 29 30 31 33 38 39 39 39

GFSGBSN_sfc_30mbdewp_015.txt.gz
Dewpoint
52 53 53 53 54 55 54 54 54 53 53 54 54 53 53 52 52 52 52 52 52 52 52 53 55 55 53 35 22 28 30 36 40 26 21 18 14 9 4 4 3 4 6 4 5 7 8
53 53 53 53 55 55 54 54 53 54 54 54 53 53 53 54 53 53 52 52 52 52 52 54 55 55 46 24 26 26 26 24 25 22 17 16 14 13 7 6 11 13 15 15 15 15 15
53 53 52 54 55 55 55 53 54 54 53 53 53 53 53 54 52 52 52 52 52 52 54 54 55 51 38 25 26 24 24 23 24 26 20 22 18 13 15 18 19 18 17 18 19 19 18
52 52 52 55 55 55 54 53 54 53 53 53 53 52 53 53 54 53 52 52 53 54 54 54 54 47 28 27 27 22 21 21 25 28 27 25 23 23 20 22 17 15 16 15 18 19 21
52 51 52 54 55 55 55 54 53 53 52 52 52 52 52 53 53 53 54 53 53 53 53 53 51 46 22 27 23 23 23 19 25 29 27 24 25 19 23 16 14 13 12 11 17 20 20
52 49 52 54 54 55 55 54 53 52 52 51 51 51 51 52 52 52 52 52 52 52 50 45 39 29 21 20 22 22 23 26 26 27 24 23 20 17 13 12 9 7 4 6 8 18 14
51 48 51 54 54 55 54 54 53 52 52 51 51 50 50 51 51 51 50 45 36 37 31 26 20 21 19 20 23 22 25 25 25 24 20 20 17 15 18 16 14 11 9 10 12 19 18
51 47 50 53 54 54 54 53 53 52 52 51 51 50 50 51 51 51 53 39 41 34 23 25 25 25 26 25 19 23 26 23 22 17 19 14 17 20 21 19 16 16 14 14 18 20 20
50 47 49 52 53 53 52 53 52 52 51 51 50 51 51 50 51 53 46 46 48 44 22 24 25 23 24 25 25 26 25 20 17 14 10 16 20 21 22 19 19 20 18 22 21 21 21
49 46 50 52 52 52 51 52 52 51 50 50 50 51 50 50 49 47 43 48 52 49 20 17 20 23 23 25 25 29 30 24 18 13 15 19 24 22 21 22 24 19 24 25 23 20 15
48 47 50 51 52 51 51 51 52 51 49 49 50 50 50 49 44 38 46 52 55 50 17 22 22 29 24 25 26 27 31 25 19 20 22 21 22 24 23 25 26 24 29 26 25 22 19
48 48 50 51 51 51 51 51 51 51 49 48 50 50 49 49 50 49 50 53 52 34 19 21 23 25 25 26 27 28 27 28 28 21 22 24 27 28 27 27 27 29 28 26 27 24 19
49 50 50 51 51 51 50 51 51 50 49 52 51 51 50 49 42 54 55 48 22 26 24 21 22 24 25 25 27 27 27 28 25 23 23 24 26 29 30 26 29 26 24 22 23 22 21
50 50 50 51 51 51 50 51 51 51 50 52 52 52 54 54 53 57 49 32 27 24 19 23 23 24 24 25 28 27 25 25 28 25 21 20 25 27 29 29 27 26 26 26 18 19 18
50 51 50 51 51 50 50 50 51 51 51 50 51 52 50 56 58 54 38 31 24 21 23 22 22 22 23 26 26 28 28 27 29 30 25 23 24 29 30 30 29 27 26 27 28 28 26
50 50 50 50 51 50 51 50 51 51 51 51 42 40 44 56 57 50 39 30 27 27 25 22 21 25 22 24 25 26 27 30 29 30 30 27 26 26 29 30 31 29 28 26 24 22 13
50 49 49 50 51 50 50 50 50 51 51 52 41 34 52 56 52 39 35 30 28 31 30 27 25 25 26 26 26 27 28 30 31 30 28 25 24 25 26 27 25 27 27 27 22 23 20
49 49 49 50 51 51 50 50 50 50 52 51 42 34 50 52 34 38 33 30 31 31 34 32 31 29 28 29 29 29 28 32 34 33 29 30 27 21 18 28 31 29 26 24 22 18 22
49 49 49 50 51 50 50 49 50 51 50 48 35 40 49 50 39 40 35 33 32 31 31 31 32 33 33 31 31 31 33 37 37 34 33 31 27 18 17 28 29 26 26 24 26 28 22
49 49 49 50 50 50 50 50 50 51 50 50 39 39 40 41 38 32 32 30 32 34 34 34 34 33 33 31 33 32 34 36 38 36 35 35 26 22 16 16 18 19 19 20 22 24 24
49 50 49 49 50 50 50 49 50 51 49 50 41 40 41 37 37 33 32 31 30 30 33 33 32 31 32 31 31 32 33 35 35 36 35 33 26 26 24 21 19 20 21 21 19 19 20
50 50 49 49 50 50 50 49 50 51 48 45 36 39 39 40 36 34 34 30 28 31 31 30 30 31 30 32 26 29 28 26 25 33 31 32 30 31 26 24 21 21 21 20 20 22 23
50 50 49 50 50 50 50 50 50 51 50 43 45 45 40 38 36 34 33 31 30 34 36 31 32 29 30 30 34 35 36 34 32 31 32 33 33 29 27 30 29 26 27 21 22 23 25
50 49 49 51 51 51 51 50 49 50 51 47 47 42 45 39 38 34 33 32 32 33 33 34 32 34 38 38 37 36 35 35 35 36 36 38 34 36 32 30 24 25 25 25 24 25 25
50 50 51 52 52 52 52 50 49 51 51 48 45 43 43 41 37 36 34 33 36 36 35 36 39 39 40 37 35 31 30 29 34 34 34 36 37 32 30 25 23 25 28 28 26 27 27
50 50 51 52 52 52 52 51 49 50 52 49 49 49 45 38 42 36 36 37 37 38 39 41 42 43 42 41 36 23 26 23 25 30 35 36 39 35 32 27 22 28 29 31 31 26 35
50 50 51 51 52 52 52 51 49 49 51 52 51 54 43 45 40 38 38 37 37 37 37 40 41 42 42 41 33 34 28 28 23 25 31 33 34 32 30 28 27 27 31 32 27 31 36
50 50 50 51 51 52 52 52 50 49 50 52 52 53 49 44 42 42 41 40 40 37 41 41 40 42 42 37 38 37 36 32 30 26 30 29 32 30 31 28 25 31 30 33 34 38 38
50 50 50 50 51 51 51 52 51 49 49 51 47 50 51 45 46 50 48 48 46 43 39 43 38 41 40 40 41 40 34 37 36 28 27 26 29 29 30 28 28 32 33 37 38 39 40

GFSGBSN_sfc_30mbdewp_018.txt.gz
Dewpoint
51 53 54 54 53 55 55 54 54 53 53 53 53 55 54 53 53 52 52 52 52 53 53 53 53 55 53 42 25 27 28 38 40 38 26 18 16 11 6 5 3 3 1 1 3 5 7
53 53 53 53 54 55 55 55 53 53 53 54 54 54 53 53 53 53 52 52 53 52 52 53 54 55 50 32 24 24 24 24 26 20 16 15 13 11 3 2 6 7 6 8 9 9 10
53 53 53 53 55 55 55 54 53 53 54 54 54 54 53 53 54 52 53 53 52 52 52 54 55 52 43 30 23 22 22 22 23 24 21 19 17 11 11 14 14 14 13 14 15 14 13
53 53 52 53 54 55 55 54 54 54 54 54 54 53 53 53 54 53 52 52 52 53 54 54 55 50 37 27 26 22 20 18 21 24 24 21 20 21 20 18 13 13 15 14 16 17 18
53 52 51 53 54 55 55 55 54 53 53 53 53 53 53 53 53 54 53 53 54 54 54 54 52 48 32 25 21 21 20 18 20 25 25 22 23 17 17 13 13 15 12 14 18 16 19
52 51 50 52 54 55 55 55 54 53 53 52 52 52 52 53 53 53 53 53 53 52 52 48 45 37 26 19 21 19 20 24 22 25 21 21 20 16 16 15 12 12 7 6 9 17 13
52 50 49 52 54 54 54 54 53 53 52 51 52 51 52 52 52 52 51 47 39 38 39 27 21 23 17 16 16 19 20 22 25 24 22 18 17 18 18 15 12 9 7 7 14 19 16
51 50 48 51 54 54 53 54 53 52 52 51 51 50 51 51 52 52 52 41 38 34 27 24 23 22 21 22 17 20 22 23 21 20 19 13 16 19 18 15 13 12 13 12 16 18 17
51 49 47 51 53 53 52 53 53 52 52 50 51 51 50 51 52 52 45 45 45 47 22 21 23 20 24 24 21 21 25 20 19 18 11 20 19 18 17 17 17 16 16 22 20 20 19
51 48 47 51 52 52 51 52 52 52 51 50 49 50 51 51 49 45 44 44 49 49 20 16 20 20 22 23 23 25 26 24 17 12 12 20 22 18 18 19 23 17 26 25 21 20 16
51 47 48 50 52 51 51 51 52 51 50 49 50 51 50 50 52 40 46 48 51 50 19 20 20 25 21 24 23 24 25 21 19 18 18 20 21 22 22 25 24 23 27 24 23 21 19
50 47 49 50 52 51 51 51 51 51 49 48 50 51 50 49 54 48 50 53 50 40 23 19 21 23 20 23 25 25 22 26 24 17 21 23 25 27 26 26 25 26 27 25 25 23 22
49 49 50 50 52 51 51 51 51 51 49 50 49 49 49 52 49 52 55 48 25 28 21 20 19 22 22 23 24 25 25 24 25 22 22 23 25 28 27 27 29 26 24 24 26 22 23
49 50 50 51 51 51 51 51 51 51 50 52 50 52 54 53 53 57 51 35 29 22 18 19 21 23 23 24 25 25 24 24 26 28 22 20 25 26 28 28 25 25 25 27 22 24 22
50 50 50 50 51 51 51 51 51 51 51 51 52 56 52 57 58 55 43 32 27 20 21 20 21 21 23 25 25 26 27 26 28 31 27 21 25 28 28 28 26 27 26 23 26 28 25
50 50 50 50 51 51 51 50 50 51 51 52 46 45 43 56 58 52 42 36 29 26 21 21 19 22 20 21 23 24 25 28 26 28 27 25 26 25 26 28 30 26 25 24 26 21 17
50 49 50 49 51 51 50 50 50 51 51 52 52 36 54 55 55 40 37 36 27 27 28 22 21 22 23 22 24 25 26 29 30 28 27 25 23 25 24 25 23 26 25 25 22 22 21
50 49 49 49 51 50 50 50 50 51 51 51 45 35 52 54 33 34 35 30 30 30 33 31 28 25 26 26 26 27 28 32 32 31 28 27 26 24 19 25 27 25 24 23 24 20 25
49 49 49 50 50 50 50 50 50 51 50 51 38 44 51 51 37 41 35 31 30 29 28 29 30 31 31 29 30 29 34 36 36 35 35 31 28 23 21 28 28 22 23 22 26 30 24
49 49 49 49 50 50 50 50 50 51 51 50 43 38 38 42 41 35 34 32 32 34 33 32 32 32 31 32 31 31 34 36 37 35 33 36 25 21 20 17 18 17 17 18 18 25 26
49 49 49 49 49 50 50 49 50 51 49 49 44 39 34 34 35 34 31 29 30 32 32 32 31 29 30 30 30 31 34 35 35 34 34 32 26 27 25 21 20 18 18 19 18 20 19
49 50 49 49 50 50 50 50 50 50 48 47 43 38 40 37 35 33 34 30 29 28 31 29 29 30 31 33 30 30 30 29 27 32 30 32 32 32 26 22 21 20 22 22 21 20 20
50 50 49 50 50 50 50 49 50 50 51 44 45 46 41 38 36 35 35 31 29 33 36 31 30 31 34 33 35 35 34 32 29 31 31 34 34 31 27 30 29 28 28 22 23 23 24
50 49 49 51 50 51 51 49 50 50 52 54 50 43 46 39 37 34 33 31 31 34 31 32 32 36 38 35 37 36 36 36 33 35 35 37 35 36 28 31 18 23 24 24 24 25 25
50 49 50 52 52 52 51 49 49 51 51 50 46 48 46 41 40 34 33 32 34 35 34 38 39 38 37 35 37 27 30 26 32 33 33 36 37 31 30 27 24 24 28 28 27 27 28
50 50 51 52 52 52 51 50 49 50 51 51 53 55 49 41 42 36 33 36 36 38 40 41 42 41 39 42 36 20 28 24 28 30 34 37 39 35 32 26 21 25 28 31 30 26 36
50 50 51 52 52 52 51 51 49 49 50 53 53 56 52 47 41 43 37 38 38 40 40 40 42 42 42 41 33 33 30 26 27 28 32 33 35 32 31 28 30 28 30 32 25 31 39
50 50 51 51 52 52 51 51 49 49 49 53 53 53 53 47 44 44 42 40 39 39 43 41 40 41 44 37 37 38 36 34 31 28 32 29 31 30 31 28 25 31 30 30 35 39 40
49 50 50 50 51 51 51 51 50 49 48 51 48 51 53 49 48 50 49 48 46 45 41 43 38 42 44 41 41 42 34 38 36 29 25 26 33 33 32 31 33 32 33 38 39 40 40

GFSGBSN_sfc_30mbdewp_021.txt.gz
Dewpoint
51 52 54 54 54 54 55 56 55 53 53 52 52 52 53 55 54 54 52 52 52 52 53 53 53 54 53 47 37 27 39 43 42 40 35 34 29 16 13 12 5 1 2 2 3 7 8
52 53 54 54 53 54 55 56 55 53 52 52 54 54 54 54 54 54 52 52 52 53 53 53 54 55 50 32 30 26 26 40 34 37 33 32 20 14 9 13 5 4 1 3 3 8 10
53 54 54 53 53 54 55 55 54 53 54 55 54 54 54 53 53 54 52 52 53 53 52 53 55 54 48 38 30 24 23 21 22 23 24 21 20 18 16 14 15 11 8 9 11 11 12
53 53 53 52 53 54 55 55 55 55 54 54 54 54 53 53 53 54 52 52 52 52 53 54 55 52 34 35 24 22 20 19 20 24 26 24 24 20 22 15 12 12 15 13 15 15 15
53 53 53 51 53 54 55 55 55 54 53 53 53 53 53 53 53 53 53 52 53 53 54 54 51 50 36 27 19 21 20 20 21 24 25 23 23 22 17 14 13 14 12 16 15 18 18
53 52 51 50 53 54 55 54 54 53 53 53 52 52 53 52 53 53 53 54 53 53 52 51 48 42 41 23 21 19 21 21 23 24 22 21 22 20 17 17 13 13 11 17 16 16 15
53 52 50 49 52 54 54 54 54 53 53 52 52 51 52 52 52 53 51 48 41 40 46 34 32 36 21 17 19 18 20 21 25 24 22 22 20 19 16 15 12 12 13 17 18 18 15
52 51 49 49 52 54 53 53 53 53 52 52 51 51 51 52 52 52 51 49 40 41 30 35 32 28 21 20 17 19 23 23 23 23 24 21 19 18 17 15 16 13 18 21 19 19 16
51 51 47 49 52 53 52 52 52 53 52 51 51 51 51 52 52 50 47 48 48 49 29 23 23 20 23 25 22 20 24 26 21 20 22 20 18 17 17 23 21 24 23 22 21 21 21
51 50 47 49 51 52 51 52 52 52 52 51 51 52 51 52 47 50 44 46 51 53 22 19 20 20 23 24 23 25 24 25 19 20 23 22 20 20 20 24 23 25 28 26 23 21 19
51 49 47 50 51 52 51 51 51 52 51 51 50 52 50 52 47 51 47 50 52 51 18 16 23 23 22 24 24 24 23 27 21 19 22 20 23 26 26 24 24 25 27 26 25 23 23
51 49 48 50 51 52 51 51 51 51 51 50 50 52 50 48 50 54 55 56 50 40 20 21 22 23 18 24 25 22 22 26 25 22 24 23 28 27 26 27 26 25 28 28 28 25 23
51 49 49 50 51 51 51 51 51 51 50 51 50 50 49 52 53 56 57 50 30 30 25 19 21 21 23 23 24 23 22 25 27 21 21 23 27 29 28 27 28 27 26 26 23 25 24
50 49 50 50 51 51 51 51 51 51 50 53 50 49 53 58 60 58 54 38 30 24 19 19 22 24 23 24 25 25 25 26 29 32 28 25 25 27 29 27 25 28 26 22 22 21 22
49 49 50 50 51 51 51 50 50 51 51 52 52 54 56 58 59 56 47 37 33 26 21 20 22 23 23 25 26 27 27 27 27 28 27 28 25 28 28 27 27 27 23 23 27 30 24
49 50 50 49 51 51 50 50 50 51 51 52 51 52 50 58 58 53 43 39 31 26 24 22 20 23 22 22 24 27 27 30 27 28 28 25 24 25 25 27 29 26 24 25 24 20 18
50 49 50 49 50 51 50 50 50 51 51 52 51 40 54 59 54 44 39 41 28 27 33 29 25 21 25 22 24 26 28 30 31 29 26 28 28 24 23 24 24 26 26 25 24 24 20
50 49 49 49 51 50 49 49 50 51 52 50 51 37 55 57 31 39 37 36 29 29 32 31 31 25 27 25 28 29 32 32 34 35 28 26 27 22 25 25 26 25 26 26 21 21 27
49 49 49 50 49 49 49 49 51 51 51 53 45 47 55 56 29 33 36 31 30 29 30 29 31 32 31 31 30 35 36 37 38 35 34 29 25 22 25 29 29 21 24 23 31 28 21
49 49 48 49 49 49 49 49 51 51 50 51 49 39 46 47 45 41 36 31 32 34 33 32 32 32 32 32 32 35 36 37 36 32 32 36 25 23 22 20 19 17 18 18 25 26 25
49 49 49 48 49 49 50 49 50 50 48 49 48 40 37 32 30 37 37 33 33 32 33 33 31 31 32 30 32 35 37 36 37 32 34 32 28 28 27 23 22 20 20 21 20 20 20
49 49 49 49 49 50 50 50 50 50 48 48 46 45 39 34 29 35 37 32 33 32 32 31 30 31 33 32 34 34 34 33 33 31 32 34 32 28 21 29 25 21 24 26 23 23 24
49 49 49 49 49 50 50 49 50 51 51 48 49 47 47 42 32 36 34 32 32 33 34 35 33 36 35 35 37 38 36 34 35 32 33 36 32 28 21 30 29 26 27 23 24 25 25
50 49 49 51 50 51 50 49 50 51 52 55 53 52 42 35 40 37 36 34 34 32 33 39 38 36 37 37 34 33 33 34 36 35 39 34 35 32 21 28 5 27 27 28 26 27 28
50 49 49 51 51 51 50 49 49 50 51 54 53 53 43 36 42 38 33 34 37 41 39 39 39 38 38 40 30 20 24 25 32 33 35 37 34 25 20 26 24 26 28 28 27 28 36
49 49 51 51 51 51 51 49 49 49 51 53 53 56 49 39 40 43 35 36 39 40 41 41 43 44 44 39 29 18 23 22 28 31 36 39 36 29 29 17 9 26 31 32 31 26 38
50 50 51 51 52 51 51 50 48 49 49 55 52 56 54 42 44 45 39 38 42 42 40 42 42 41 44 34 31 24 29 31 28 29 30 34 34 30 29 25 27 32 31 32 25 25 39
50 50 51 51 51 51 51 50 49 48 49 54 50 54 52 45 45 49 48 43 42 43 39 42 39 40 41 33 29 33 33 31 30 32 29 23 26 28 30 27 21 32 31 28 31 40 40
50 50 50 51 51 51 51 51 49 49 50 52 48 53 55 50 49 50 48 49 49 49 44 42 34 43 43 38 39 40 33 37 33 26 33 26 28 28 29 26 30 33 32 38 39 40 39

GFSGBSN_sfc_30mbdewp_024.txt.gz
Dewpoint
53 52 52 54 54 55 54 55 56 56 53 52 52 52 52 52 54 55 55 53 52 51 52 53 53 53 53 46 34 34 37 47 49 41 34 30 32 24 17 13 5 1 1 2 8 9 4
53 52 53 54 54 53 54 55 55 55 53 52 52 53 54 54 54 54 54 52 51 51 53 53 53 53 48 31 34 30 36 45 37 36 34 35 29 23 19 13 3 2 2 2 5 9 10
53 53 54 54 53 53 54 55 55 55 53 54 55 55 54 54 54 53 54 52 51 52 53 53 53 54 49 34 38 35 31 27 32 34 27 25 24 20 19 12 9 6 5 6 5 10 10
53 54 54 53 53 52 54 54 54 55 55 54 54 54 54 53 53 53 53 51 51 53 53 53 55 53 33 37 36 25 21 19 22 26 26 25 23 21 17 15 14 11 12 10 12 12 14
54 54 54 53 51 52 54 54 54 55 54 53 53 53 53 53 53 53 53 52 52 53 53 54 51 51 25 38 23 20 20 19 23 23 24 21 23 23 17 12 12 15 11 14 15 15 15
54 54 53 52 50 52 54 54 54 54 53 53 53 52 53 53 52 53 53 53 53 53 53 52 49 41 36 29 20 19 20 20 23 25 24 21 23 20 18 15 10 11 14 16 15 16 17
54 54 53 51 50 53 54 54 53 53 52 52 52 52 52 52 52 52 51 48 40 40 46 26 29 36 31 29 19 18 19 20 24 25 21 25 19 17 15 16 14 14 18 17 17 18 15
54 53 52 50 50 53 53 53 52 52 52 52 51 52 51 52 52 52 50 45 39 45 22 31 37 36 34 17 16 18 21 22 23 22 24 22 19 19 18 22 24 20 18 18 19 21 16
54 52 51 48 50 52 53 52 52 52 52 51 51 50 51 52 52 49 44 45 49 47 37 24 29 28 23 25 20 19 24 26 23 21 22 20 18 18 24 23 23 27 23 22 21 22 22
53 51 50 47 50 52 51 51 52 52 52 51 51 51 51 52 45 47 38 38 48 48 25 20 20 20 23 26 22 25 24 25 23 22 22 20 21 24 25 23 24 26 27 25 22 20 11
52 51 49 47 50 51 51 51 51 51 51 51 51 51 51 50 46 49 49 55 54 47 14 18 22 22 23 24 24 21 24 27 21 19 22 23 26 26 25 24 24 24 26 25 25 23 24
51 51 47 48 50 51 51 51 51 51 51 51 51 52 51 49 49 50 56 56 44 31 17 20 23 21 19 23 23 23 22 26 27 24 24 25 29 27 26 27 26 25 27 30 28 26 22
51 50 48 49 50 51 51 51 51 51 50 49 51 52 49 52 52 57 57 43 25 29 24 19 21 21 21 23 23 22 26 28 28 21 22 26 28 28 29 28 28 26 28 24 23 25 22
51 49 49 49 51 51 51 50 50 50 50 51 51 52 50 54 59 56 49 32 29 28 21 21 24 23 22 25 25 26 26 27 28 32 24 25 24 27 28 26 25 27 26 22 21 18 19
50 49 50 50 51 51 50 50 50 50 50 52 52 51 56 57 58 54 41 29 33 27 22 21 24 23 24 25 25 27 27 26 27 28 26 26 24 28 26 27 28 26 23 26 26 28 23
49 49 50 49 51 50 49 49 49 51 51 52 49 50 47 57 57 47 42 38 34 29 29 23 22 24 22 23 25 27 28 30 27 28 29 27 24 26 25 29 29 22 25 25 23 17 16
49 50 50 49 51 49 49 49 49 51 51 51 51 33 47 58 48 38 35 40 32 31 33 27 25 22 24 23 24 28 29 31 32 30 26 30 26 23 28 24 24 25 25 25 24 24 17
49 49 49 50 50 49 49 49 50 51 51 49 49 33 54 49 25 39 35 38 30 29 32 31 31 30 25 26 31 32 31 32 37 36 24 28 26 23 25 25 26 25 26 25 16 19 25
49 49 49 50 49 49 49 49 51 51 51 48 43 47 55 48 21 31 35 32 30 29 29 29 31 32 33 31 32 36 35 38 34 34 32 29 24 20 25 29 29 23 25 29 28 27 20
49 49 49 48 49 49 49 50 51 51 51 52 47 38 44 48 43 32 34 31 31 34 33 33 32 32 32 32 36 35 35 37 33 30 33 36 27 23 18 23 22 17 19 26 26 22 22
49 49 49 48 49 49 49 50 50 50 50 49 48 39 33 27 33 39 38 33 32 31 33 33 31 31 32 31 34 35 37 36 36 32 32 31 25 28 25 25 23 21 20 21 20 22 20
49 49 48 48 49 49 49 50 50 50 49 47 45 44 40 29 28 32 38 35 32 33 32 31 30 32 33 32 33 34 34 34 30 31 32 35 29 25 18 29 27 20 19 25 26 23 24
49 49 48 49 49 49 50 50 51 50 49 46 48 49 38 42 29 31 35 34 34 34 35 37 36 35 34 35 37 37 37 36 35 32 35 33 30 22 9 29 25 17 24 25 24 26 25
49 49 49 49 50 51 49 49 50 51 52 55 53 51 40 36 35 28 36 34 35 34 35 39 37 34 37 40 32 31 32 35 35 37 36 33 32 28 16 22 6 20 28 27 25 29 33
49 48 50 51 51 50 49 49 49 50 52 53 53 50 39 35 42 38 35 39 39 40 40 40 42 39 39 35 21 18 21 28 32 38 39 35 30 24 14 19 17 24 29 27 25 27 35
48 49 51 51 51 51 49 48 48 49 52 50 53 55 40 35 39 43 38 39 36 38 38 41 43 45 41 34 22 12 6 13 26 31 37 36 30 19 27 10 2 17 30 31 30 26 37
48 50 51 51 51 51 50 49 48 49 52 51 51 55 48 41 44 45 38 38 42 40 38 41 40 41 38 28 24 17 25 28 25 26 29 34 33 28 25 19 21 25 32 31 25 18 39
50 51 51 51 51 51 50 49 49 50 51 50 51 53 47 43 47 48 47 42 43 40 36 40 36 39 37 29 23 30 30 30 30 31 29 26 25 28 28 24 13 30 32 27 28 39 39
50 51 51 51 51 51 51 50 49 50 51 54 47 53 53 46 47 49 48 49 48 46 42 41 31 39 37 33 34 36 31 35 31 24 32 23 23 22 27 22 28 33 32 33 39 39 39

GFSGBSN_sfc_30mbdewp_027.txt.gz
Dewpoint
55 54 54 53 54 55 54 54 55 56 56 55 52 52 52 52 52 52 54 55 53 51 51 51 53 52 52 44 32 33 51 54 44 35 29 29 30 27 20 16 12 2 2 7 7 5 4
56 54 53 53 54 54 54 54 55 55 55 55 52 51 52 52 53 54 55 54 51 51 51 53 53 52 48 26 32 36 43 41 38 36 33 31 27 30 21 15 2 3 3 6 9 8 10
56 54 53 53 54 54 54 53 54 54 55 54 53 54 54 55 54 54 54 53 50 51 52 53 52 53 47 27 37 38 36 34 35 34 30 34 33 29 19 12 8 5 2 5 8 8 10
55 54 53 54 54 53 52 53 54 54 55 55 55 54 54 54 54 53 53 53 51 51 53 53 54 53 32 36 39 35 26 22 26 34 30 25 25 21 15 15 15 11 12 9 10 11 13
54 54 54 54 54 53 51 53 54 54 54 54 54 54 54 53 53 53 53 52 51 52 53 54 51 50 23 32 29 24 21 19 23 25 25 22 24 21 18 12 12 15 10 11 14 14 14
54 53 54 54 53 52 51 53 54 54 53 53 53 53 53 53 52 52 53 53 53 53 53 53 50 40 31 23 25 20 20 21 23 25 22 23 23 18 17 12 3 8 12 14 13 15 15
54 54 54 54 53 51 51 54 54 53 52 53 52 52 52 52 52 52 52 49 42 40 47 28 27 30 35 28 20 19 19 21 26 25 22 24 19 16 15 16 15 15 16 15 17 18 16
54 54 54 54 53 50 52 54 53 52 52 52 52 52 52 52 52 52 51 42 37 46 30 37 38 37 36 34 19 17 22 21 23 21 24 21 19 20 23 26 20 20 17 18 21 22 17
54 54 54 53 51 50 52 53 52 52 52 52 51 51 51 52 52 50 44 43 49 43 37 30 26 24 25 29 21 18 24 26 23 21 21 19 19 23 23 25 23 26 22 22 20 22 21
53 53 53 52 50 50 52 52 51 52 52 51 51 51 51 52 45 44 35 39 50 43 24 21 22 23 23 26 22 25 25 24 23 20 21 20 27 25 23 22 26 23 27 24 22 19 14
53 53 52 51 48 49 51 51 51 51 51 51 51 51 51 50 46 48 46 55 53 42 13 17 21 21 24 24 21 20 24 27 20 22 21 24 26 25 24 23 24 23 27 25 24 22 23
53 52 51 50 47 50 51 51 51 51 51 51 51 51 52 49 48 49 55 52 42 29 13 18 23 19 22 24 23 23 23 30 27 25 26 26 28 26 26 27 26 26 28 30 30 26 22
52 52 51 49 48 50 51 51 51 51 51 51 51 51 50 51 52 57 55 38 22 27 24 20 20 20 21 23 22 21 28 28 24 21 24 27 27 28 29 27 28 27 28 23 23 23 22
52 51 50 48 49 51 51 51 49 49 50 51 51 51 49 49 58 56 43 27 23 29 21 23 22 21 22 25 26 27 28 26 28 27 25 24 24 27 27 26 25 26 26 22 21 21 20
51 50 50 49 50 51 51 49 49 49 51 51 51 49 54 56 57 50 34 20 30 30 22 22 23 22 24 25 27 27 27 26 26 28 25 25 23 28 26 27 28 27 23 26 26 27 23
51 50 49 49 50 51 50 49 49 50 52 51 49 50 48 57 54 45 35 31 36 32 27 25 21 24 22 23 26 27 28 30 26 27 29 28 24 26 25 29 27 22 28 23 21 14 16
50 50 50 50 50 50 49 49 49 51 52 52 49 30 45 57 42 32 25 34 39 30 32 24 24 25 24 23 27 28 29 32 34 31 28 30 24 22 28 24 25 25 24 25 25 24 15
50 49 50 49 50 49 49 49 49 51 51 50 45 28 52 42 24 37 32 38 35 28 32 31 32 28 26 28 31 30 30 32 37 35 23 29 25 23 25 26 28 26 25 23 10 16 24
49 50 49 50 49 49 48 49 50 51 49 48 41 49 54 38 19 30 32 35 31 28 30 30 30 33 33 33 30 35 35 37 33 33 29 29 24 22 23 26 26 24 26 29 26 25 20
49 49 49 49 48 48 48 49 51 51 51 50 44 40 44 46 37 26 28 32 31 34 33 33 32 33 32 34 37 34 35 37 31 29 34 33 28 21 13 20 24 19 20 28 24 21 21
49 49 49 48 48 48 48 50 50 51 51 49 47 36 37 33 37 40 34 33 31 30 33 32 31 32 31 32 34 34 36 35 32 32 32 30 24 27 25 26 23 19 19 24 23 22 19
49 49 48 48 48 48 49 50 50 50 50 46 45 41 39 30 30 38 37 35 32 32 32 31 30 34 33 31 31 33 34 32 25 32 33 34 26 23 23 29 27 21 21 20 20 22 24
49 47 48 48 49 49 50 50 50 49 48 44 47 49 36 37 31 33 36 36 33 34 37 37 34 34 32 35 37 38 37 36 33 31 34 30 28 21 12 28 21 16 19 21 24 25 24
49 48 48 49 49 50 49 50 50 49 50 52 52 47 39 36 27 28 37 35 35 34 34 38 36 34 35 36 31 31 32 36 38 37 35 31 27 23 13 17 5 13 26 27 23 26 30
48 49 49 50 50 49 49 49 50 50 51 53 53 46 38 37 38 35 36 39 39 40 40 40 41 39 38 28 24 25 23 27 32 38 36 34 27 20 13 14 13 15 27 26 25 23 33
48 50 51 50 50 49 48 48 49 51 52 52 54 49 40 38 39 42 39 38 36 36 38 40 44 43 37 27 17 16 16 13 23 31 36 31 26 17 23 9 1 8 30 31 29 23 35
50 51 50 51 50 49 49 49 50 52 53 49 52 53 44 41 45 44 38 36 40 37 37 40 40 39 35 27 20 18 17 23 17 22 31 34 32 26 21 15 17 20 31 30 22 13 37
50 50 50 50 50 50 49 50 50 51 51 49 51 53 45 44 47 47 46 42 41 39 34 39 36 37 33 28 22 24 25 29 28 29 30 27 27 27 26 23 15 27 31 27 26 33 38
50 51 50 50 50 50 49 50 50 51 53 49 49 54 51 45 46 48 48 49 48 41 41 40 35 37 35 30 29 32 28 33 29 21 32 24 24 21 26 20 26 31 32 33 35 36 39

GFSGBSN_sfc_30mbdewp_030.txt.gz
Dewpoint
57 56 55 55 54 54 54 54 55 55 55 56 55 55 52 52 52 51 51 52 55 52 50 50 51 51 51 45 32 46 56 55 44 32 29 28 26 25 23 20 16 13 3 8 5 8 18
57 56 56 55 54 54 53 54 55 54 55 55 55 54 51 51 51 52 52 53 53 50 50 50 52 51 48 27 31 45 47 43 37 33 31 29 28 29 24 17 6 5 4 6 7 7 10
57 57 56 55 54 54 54 54 54 53 54 55 55 54 53 54 53 53 54 54 53 50 50 51 52 51 48 28 35 39 40 35 37 33 31 31 30 26 22 15 8 6 3 6 8 9 13
57 57 56 55 54 53 54 54 53 53 54 55 55 55 54 54 54 54 54 53 51 50 51 53 53 52 34 35 39 37 34 26 35 35 32 30 34 28 18 14 15 10 11 2 8 10 14
56 56 55 54 53 54 54 53 52 53 54 54 54 54 53 53 53 53 53 53 50 50 52 54 51 50 27 31 29 28 26 19 24 30 32 26 25 20 15 11 11 14 9 11 9 13 13
56 56 55 54 54 54 53 53 52 53 54 54 53 53 53 53 53 53 53 52 52 52 52 53 51 41 32 22 31 20 20 21 24 25 22 23 22 16 16 9 7 7 11 12 13 15 13
56 55 54 54 54 54 53 52 52 53 53 53 53 53 52 52 53 52 52 49 41 40 47 32 28 28 34 33 25 19 19 22 26 24 21 24 17 14 15 16 14 14 14 13 16 18 17
56 55 54 54 54 53 53 52 52 54 53 52 52 52 52 52 52 52 50 41 34 41 35 39 37 37 37 34 25 17 23 22 23 20 24 21 18 19 26 23 20 19 17 18 21 21 19
55 55 54 54 54 53 53 51 53 53 52 52 52 52 52 52 52 51 47 43 48 44 37 32 35 29 22 31 24 18 24 25 22 21 21 19 20 24 25 25 21 25 20 21 20 21 22
55 54 54 54 54 53 52 51 53 52 52 52 52 51 52 52 47 44 38 38 51 43 23 21 24 24 24 26 22 24 26 24 23 20 20 24 27 23 22 23 25 21 27 23 21 17 16
55 54 53 53 53 52 50 50 52 51 51 52 51 51 52 49 46 41 40 55 53 37 15 19 21 21 25 22 21 21 29 25 20 22 21 24 25 24 23 23 25 24 27 25 24 22 23
54 53 53 53 52 51 49 50 51 51 51 52 51 51 52 49 48 49 54 50 38 27 15 19 22 19 22 24 23 23 28 30 27 27 27 27 28 27 25 28 26 27 29 29 29 26 21
54 53 53 52 51 50 48 50 51 51 51 51 51 51 50 48 50 57 53 36 23 23 24 20 19 20 22 23 22 25 27 27 22 22 24 27 27 28 29 27 28 28 27 22 23 23 22
50 52 52 51 50 49 48 51 51 50 51 51 51 51 50 50 54 55 40 23 19 27 22 22 21 22 21 24 27 28 27 26 28 25 26 23 21 26 27 26 26 25 26 23 20 21 22
47 52 52 51 49 48 49 51 50 49 50 51 51 50 50 55 51 49 29 19 22 30 24 22 22 21 24 25 26 27 27 26 26 28 22 24 23 28 26 27 28 26 21 26 25 26 22
47 52 51 50 48 49 50 51 49 49 51 51 49 46 50 56 54 44 26 21 34 36 28 23 18 23 23 24 25 27 27 30 26 28 30 28 24 26 25 29 28 24 29 21 21 11 11
53 51 50 49 48 49 51 49 48 49 51 51 45 38 45 54 40 30 23 22 38 37 32 22 23 25 24 24 27 28 28 32 33 32 29 29 23 22 27 24 25 26 23 24 25 22 12
52 50 49 49 49 50 49 48 48 49 51 51 38 30 52 39 26 34 28 35 39 29 31 32 29 26 25 28 30 29 28 31 37 35 25 29 24 22 25 26 30 26 24 21 8 13 23
51 49 49 49 50 49 49 48 49 50 52 48 44 49 52 35 22 28 31 34 33 28 31 31 31 31 34 33 29 33 34 36 33 32 27 27 24 22 21 21 26 24 27 26 23 24 20
50 49 49 50 49 48 48 48 49 50 51 48 44 40 44 41 34 25 25 32 31 34 33 32 33 34 34 35 36 34 34 36 31 30 35 29 26 22 16 17 23 20 25 26 22 18 18
49 49 49 49 48 48 48 48 51 50 51 50 43 39 40 35 36 26 27 32 31 30 33 32 31 32 32 32 34 33 36 34 30 33 33 27 22 26 26 26 23 19 20 26 22 21 16
49 49 48 48 48 48 48 49 50 50 51 47 45 36 34 34 40 33 32 32 30 32 33 30 29 34 33 31 30 32 33 31 22 32 32 32 25 23 25 29 26 21 21 21 23 22 24
49 48 48 47 48 48 49 50 50 50 50 44 48 46 33 35 38 32 33 34 33 34 37 36 33 33 32 34 37 38 36 35 32 29 31 27 26 22 16 25 19 14 18 20 22 24 21
48 47 47 48 48 49 50 50 50 50 49 48 49 46 37 27 31 36 35 36 34 33 33 37 36 33 36 36 33 31 34 37 37 37 34 27 23 18 11 15 1 9 26 25 23 24 26
47 47 48 49 50 49 49 50 50 49 51 51 52 44 38 29 30 31 37 38 39 40 39 39 41 39 36 26 28 28 25 28 31 36 32 31 24 17 10 13 11 9 20 25 25 21 29
47 48 49 49 48 48 49 49 49 49 50 53 53 45 42 31 32 38 38 38 36 36 37 41 43 39 33 23 18 24 24 22 20 31 35 28 24 16 19 7 -1 6 24 30 27 21 28
49 50 50 49 48 48 49 50 50 49 51 51 53 50 43 42 45 42 36 36 38 36 36 39 38 38 33 25 20 18 17 21 15 17 29 32 30 24 19 14 15 18 29 29 19 13 33
50 50 50 49 49 49 50 50 52 52 51 52 52 52 44 44 46 47 46 40 39 38 34 39 36 36 31 28 24 22 21 25 25 26 30 25 25 25 24 22 13 25 31 26 26 29 34
50 50 50 50 48 49 49 50 51 51 51 51 49 53 50 45 46 48 47 48 47 40 40 39 35 36 34 30 26 29 26 31 28 18 31 23 26 21 24 19 26 28 32 33 32 31 36

GFSGBSN_sfc_30mbdewp_033.txt.gz
Dewpoint
58 57 57 56 56 55 55 54 55 55 55 55 55 55 55 52 52 52 51 51 52 52 51 50 50 51 51 43 31 45 57 56 45 32 30 27 25 24 26 25 17 16 7 8 7 12 26
58 57 57 56 56 56 55 55 54 55 55 54 54 55 54 52 51 51 51 51 51 52 50 49 50 51 47 25 30 49 47 44 37 31 30 29 25 26 26 18 14 11 6 7 8 14 15
58 58 57 56 56 56 55 54 54 54 54 53 54 54 55 54 53 52 52 53 54 53 50 50 51 51 49 28 34 45 41 38 37 33 30 30 30 28 26 18 10 7 7 8 10 12 15
58 58 57 56 56 55 54 54 54 54 53 53 54 54 54 55 54 54 54 54 53 50 49 50 51 51 34 37 40 39 38 34 36 36 32 32 31 28 25 16 16 10 11 5 10 12 14
56 58 57 57 56 55 54 53 53 53 53 53 54 54 54 54 53 53 53 53 52 50 50 53 51 50 26 34 28 29 29 20 31 35 34 31 31 25 16 13 12 14 4 9 10 14 13
52 58 57 56 55 54 54 53 53 53 52 52 54 53 53 53 53 53 53 52 52 51 51 52 51 43 31 24 31 25 21 21 26 27 26 24 23 18 15 9 6 10 11 13 10 14 17
51 53 57 56 55 54 54 54 53 52 51 53 53 53 53 53 53 52 51 50 45 42 48 34 29 31 30 34 31 19 19 23 26 25 21 24 17 10 11 13 9 11 13 13 16 19 26
51 50 57 56 55 54 54 54 53 52 51 53 53 52 53 53 53 52 49 44 35 36 32 40 39 37 37 36 25 18 23 22 23 21 23 20 16 19 25 20 19 18 18 19 21 21 25
49 50 55 56 55 54 54 53 53 52 52 53 52 52 52 52 52 51 48 45 47 44 38 32 38 32 25 32 23 20 23 25 22 21 21 19 19 24 25 24 22 23 21 21 20 22 24
49 49 53 55 55 54 54 53 53 51 52 52 52 52 52 52 47 47 43 42 43 43 24 21 25 25 27 27 21 24 26 24 23 21 23 25 27 23 24 24 24 22 26 23 20 18 16
49 48 48 55 54 54 53 53 52 51 52 52 52 52 52 50 42 40 37 52 47 36 10 21 22 23 25 22 22 22 31 24 21 22 22 24 25 24 23 23 24 26 27 25 23 23 23
49 47 49 52 54 53 53 52 50 50 52 51 52 52 52 50 49 47 52 49 39 28 15 19 21 20 23 23 22 25 29 28 27 28 28 27 29 27 26 28 26 31 29 29 29 26 20
47 47 47 48 53 53 52 51 49 50 51 51 52 52 51 48 45 56 52 39 25 20 25 20 19 21 23 22 23 26 27 27 24 22 24 27 27 28 29 27 28 29 26 20 19 23 21
46 48 47 47 53 52 51 50 49 50 51 51 51 52 51 50 52 53 39 26 20 24 23 22 21 23 22 24 27 28 27 27 28 26 26 22 18 25 27 27 26 26 27 21 14 21 24
45 46 47 48 53 52 50 49 49 51 49 51 51 50 48 49 50 48 31 22 22 25 26 22 22 21 23 26 26 27 27 26 27 28 21 23 23 27 26 28 28 26 20 27 25 26 22
44 46 46 48 52 51 49 49 50 50 48 51 48 47 46 55 52 41 27 21 25 34 29 22 17 23 23 25 25 26 26 29 27 28 30 27 23 26 26 28 28 26 29 21 23 10 9
44 45 45 48 49 50 49 49 50 49 49 51 47 42 46 55 42 33 25 23 33 40 33 22 22 24 25 25 27 26 27 31 32 30 30 28 24 23 27 25 25 26 24 24 25 22 7
44 45 47 45 48 49 49 50 49 48 50 51 42 34 52 42 30 32 27 28 40 32 32 31 27 26 25 28 29 29 27 30 36 34 27 28 24 23 25 26 29 27 24 23 12 12 23
45 46 47 48 50 49 50 49 48 49 51 49 37 48 52 35 27 27 31 33 34 29 31 31 31 30 34 32 28 32 33 34 34 29 28 27 25 22 22 22 26 25 27 23 22 25 20
45 45 45 47 49 49 49 48 48 50 51 48 46 39 44 36 33 27 29 28 30 34 33 33 34 35 35 33 36 33 34 35 31 31 33 28 26 22 20 18 23 22 27 24 21 16 16
45 46 46 49 49 49 48 48 48 50 51 49 42 40 42 32 28 26 25 30 29 30 33 32 32 32 32 32 33 33 35 30 31 35 33 27 22 24 25 26 24 19 22 26 22 21 14
46 46 48 49 49 48 48 48 48 50 51 48 40 36 35 35 32 27 31 32 30 33 32 30 31 34 32 31 30 31 33 29 22 33 32 31 24 24 24 28 26 22 21 22 26 24 23
47 47 49 48 48 48 48 48 49 51 50 46 49 42 32 35 35 26 28 34 31 35 37 36 33 33 32 34 37 37 36 35 31 29 30 27 25 23 16 23 19 18 20 21 22 23 23
48 49 48 48 48 47 48 49 50 50 49 47 48 41 30 31 35 27 30 35 33 33 33 37 35 33 37 38 34 33 35 37 35 34 31 24 22 19 13 15 -1 10 25 23 22 22 24
48 48 48 47 47 48 49 50 50 50 51 51 51 42 33 28 32 34 36 37 39 40 39 39 40 39 37 29 31 29 28 30 32 33 30 27 22 16 11 12 10 6 16 19 23 14 25
47 47 48 47 49 50 49 50 50 50 52 52 51 45 38 29 29 36 38 38 35 36 38 40 40 37 31 23 25 27 26 25 23 31 34 27 24 19 18 7 4 5 18 30 27 19 26
47 48 48 49 49 49 49 50 49 50 52 52 52 47 43 38 44 41 37 37 38 36 37 37 35 36 32 25 22 23 22 22 17 16 26 31 29 24 19 16 16 19 22 29 17 12 28
49 49 48 48 48 49 49 50 49 49 51 52 51 51 45 44 46 46 45 38 39 38 34 39 35 35 30 28 27 24 22 23 23 25 28 24 24 24 23 20 12 25 30 23 24 28 31
49 49 48 48 48 49 50 50 48 49 50 52 48 52 49 46 46 47 47 47 46 39 40 39 35 36 34 31 27 27 26 29 26 20 31 22 26 21 23 18 25 26 31 33 33 31 32

GFSGBSN_sfc_30mbdewp_036.txt.gz
Dewpoint
60 59 58 58 57 56 56 56 55 55 55 55 55 54 55 55 53 52 51 52 51 51 52 50 50 50 50 43 32 46 54 55 42 31 31 27 22 18 12 17 19 17 14 10 12 24 30
54 59 58 58 57 57 56 56 55 55 54 54 54 54 54 55 53 52 51 51 51 52 52 49 50 51 48 33 26 44 46 41 32 29 29 29 22 22 25 22 18 15 10 7 9 17 29
53 54 58 58 57 56 56 56 55 54 54 54 53 53 54 55 55 52 52 52 52 53 51 49 51 50 47 34 32 42 40 35 35 30 28 29 27 25 27 23 9 10 8 13 17 23 24
53 53 57 58 57 56 56 55 55 54 54 53 53 53 54 54 54 54 54 54 53 51 49 50 52 50 38 34 35 36 35 35 36 33 31 32 31 27 26 19 12 7 8 10 16 21 17
52 52 53 58 57 56 55 55 54 54 53 53 53 53 54 53 53 53 53 53 52 50 50 53 51 50 32 34 30 28 32 25 33 34 34 33 31 27 23 15 8 10 3 5 10 13 18
51 51 51 54 57 56 55 55 54 53 53 52 52 53 54 53 53 53 53 52 51 51 51 51 50 47 38 24 29 29 24 24 29 31 30 29 26 18 16 11 4 8 2 4 4 11 13
50 51 51 52 58 57 56 55 54 53 52 52 52 53 53 53 53 53 51 49 45 43 46 35 30 34 28 30 31 22 20 27 30 26 20 25 20 11 10 11 11 8 13 10 11 19 15
49 50 52 51 52 57 56 55 54 53 52 52 52 53 52 53 53 52 50 40 35 44 33 37 36 36 33 33 26 20 23 20 22 17 25 22 16 21 23 19 16 15 14 17 20 19 20
49 50 51 50 51 56 56 55 54 53 52 51 52 52 52 53 53 51 47 40 47 44 41 32 35 31 26 31 23 19 22 24 20 19 22 16 22 26 21 20 19 21 18 20 18 21 24
48 49 50 51 50 53 56 55 54 53 52 51 52 52 52 52 48 47 44 41 43 45 29 21 25 26 25 29 21 23 26 23 24 19 24 23 26 25 23 22 23 19 24 22 20 18 13
47 48 49 50 49 51 55 54 54 53 51 51 52 52 52 51 45 41 39 39 47 46 11 18 23 26 27 24 20 24 31 25 18 22 24 24 24 23 21 24 25 25 25 23 22 20 21
46 48 48 49 48 48 55 54 53 52 51 51 52 52 52 50 49 46 52 54 49 34 17 20 22 22 23 23 22 26 27 28 29 26 26 26 28 27 26 28 27 30 28 28 26 23 17
46 47 48 48 49 48 54 53 53 51 50 51 51 52 52 48 39 57 53 49 31 22 23 20 19 21 20 21 23 24 25 23 21 22 23 25 26 28 29 27 30 28 22 14 16 18 14
45 46 47 48 47 48 51 53 52 51 50 51 51 52 52 48 48 54 51 39 22 16 20 23 20 19 18 22 24 27 26 22 27 25 21 17 20 25 28 27 23 24 21 14 6 12 15
44 45 46 48 47 48 49 53 51 50 50 51 51 51 49 49 51 52 42 32 21 24 23 21 21 18 22 23 21 25 26 23 26 28 17 20 21 26 28 29 27 25 21 28 26 27 23
43 44 45 47 47 48 48 52 50 50 50 51 48 48 45 49 51 47 40 29 24 32 26 22 17 18 19 21 19 22 25 28 28 30 32 27 22 25 27 28 29 28 27 22 23 16 9
43 44 45 46 47 48 47 52 50 50 50 51 46 40 48 54 51 45 34 27 27 37 32 21 17 22 21 24 20 18 24 29 30 29 31 28 24 26 28 24 22 27 25 24 22 22 9
42 43 44 46 46 47 48 51 50 50 50 49 43 36 56 53 43 43 31 28 34 31 37 28 24 23 23 26 26 21 22 25 34 30 28 30 28 26 25 27 29 27 25 23 13 15 23
41 42 43 45 45 45 47 49 50 49 50 47 40 44 53 47 37 37 33 30 37 29 31 30 28 28 31 28 26 30 31 36 36 31 30 30 27 24 24 25 28 25 26 24 24 25 19
41 42 43 44 44 47 46 47 49 49 50 45 39 38 49 43 36 32 30 28 31 35 33 34 34 35 34 32 35 34 34 35 34 33 31 29 29 24 18 20 24 25 26 25 21 19 13
41 43 44 45 45 47 47 49 49 49 50 49 40 37 41 39 34 32 29 27 29 32 34 34 33 31 31 32 33 34 35 31 34 35 35 31 25 27 25 25 24 21 22 24 20 18 17
43 43 44 44 46 45 48 49 49 50 51 50 40 39 40 36 32 31 30 28 28 33 33 31 31 34 34 32 29 32 33 30 30 34 33 32 27 28 26 27 25 23 22 21 23 20 21
43 43 43 46 45 45 49 48 48 49 50 46 50 42 36 37 31 29 28 31 28 36 38 36 35 35 35 36 38 38 37 34 31 33 33 31 30 25 19 23 22 20 23 21 20 24 23
44 43 44 45 45 49 48 48 48 49 50 46 49 40 37 34 32 25 30 34 33 35 35 37 37 36 39 39 37 36 36 34 33 33 32 30 28 28 23 19 8 11 20 21 22 22 21
44 45 46 46 48 48 47 47 48 49 50 54 51 43 39 35 33 29 32 38 39 39 40 39 40 40 38 36 34 32 32 32 34 33 30 28 27 21 22 15 12 8 15 16 19 12 20
46 47 47 48 48 47 47 48 48 50 50 55 53 49 42 33 35 29 35 39 37 39 39 40 39 38 34 35 34 31 30 29 29 32 33 29 29 28 22 19 16 17 24 30 28 16 22
46 48 48 47 47 47 48 48 49 50 50 55 53 52 44 41 39 41 33 38 40 40 39 38 37 38 37 35 31 33 30 26 23 22 28 33 33 30 28 26 23 21 21 30 18 17 28
48 47 47 47 48 49 49 49 49 50 52 54 53 53 49 47 46 47 44 41 40 40 39 39 36 38 37 34 36 33 32 27 25 25 29 27 30 29 28 25 18 25 30 25 29 32 30
47 48 48 48 48 49 49 49 49 50 51 53 51 52 51 47 47 48 48 48 47 43 42 40 40 38 38 38 36 36 31 31 32 28 31 27 29 28 27 24 27 28 31 33 34 33 33